Regional Weather Roundup
Issued by NWS Newport/Morehead, NC

Current Version | Previous Version | Graphics & Text | Print | Product List | Glossary Off
Versions: 1 2 3 4 5 6 7 8 9 10 11 12 13 14 15 16 17 18 19 20 21 22 23 24 25 26 27 28 29 30 31 32 33 34 35 36 37 38 39 40 41 42 43 44 45 46 47 48 49 50

000
ASUS42 KMHX 300122
RWRMHX
WEATHER ROUNDUP FOR EASTERN NORTH CAROLINA
NATIONAL WEATHER SERVICE NEWPORT/MOREHEAD CITY NC
800 PM EST THU JAN 29 2015

NOTE: "FAIR" INDICATES FEW OR NO CLOUDS BELOW 12,000 FEET
WITH NO SIGNIFICANT WEATHER AND/OR OBSTRUCTIONS TO VISIBILITY

NCZ015>017-031-032-045>047-102-103-300200-
NORTH COAST

CITY           SKY/WX    TMP DP  RH WIND       PRES   REMARKS
EDENTON        CLOUDY    41  28  60 S10       30.13S
ELIZABETH CITY CLOUDY    40  27  59 S7        30.13F
KITTY HAWK     CLOUDY    39  28  63 S5        30.13F
MANTEO         CLOUDY    39  28  65 S14       30.15F

$$

NCZ045>047-081-094-103-104-300200-
CENTRAL COAST

CITY           SKY/WX    TMP DP  RH WIND       PRES   REMARKS
FRISCO         MOCLDY    41  27  57 SW8       30.19S
SWANQUARTER      N/A     41 N/A N/A S12G17    30.15

$$

NCZ095-097-098-100-101-300200-
SOUTHERN COAST

CITY           SKY/WX    TMP DP  RH WIND       PRES   REMARKS
BEAUFORT       CLOUDY    48  31  51 SW10      30.17F
CEDAR ISLAND     N/A     41 N/A N/A S5        30.21
JACKSONVILLE   LGT RAIN  45  32  60 S5        30.17R
PINEY ISLAND     N/A    N/A N/A N/A MISG      30.15F
WILMINGTON     MOCLDY    46  34  62 S6        30.17F


$$

NCZ011>013-027>030-043-044-078>080-089-090>093-098-300200-
COASTAL PLAIN

CITY           SKY/WX    TMP DP  RH WIND       PRES   REMARKS
AHOSKIE        CLOUDY    40  20  44 CALM      30.11F
CLINTON        MOCLDY    46  28  49 S5        30.13F
ELIZABETHTOWN  MOCLDY    46  31  55 S6        30.13F
GOLDSBORO      MOCLDY    45  31  57 S9        30.10F
GREENVILLE     MOCLDY    45  21  39 S12       30.14S
HAVELOCK       LGT RAIN  43  28  55 SW5       30.18F
KENANSVILLE    CLOUDY    43  29  56 CALM      30.14F
KINSTON        MOCLDY    43  25  49 S7        30.14F
NEW BERN       LGT RAIN  45  26  47 S7        30.17F
RICHLANDS      CLOUDY    43  28  56 S10       30.16F
ROCKY MOUNT    MOCLDY    40  21  46 S6        30.10F
WASHINGTON     CLOUDY    42  23  47 S7        30.15R
WHITEVILLE     CLOUDY    46  33  59 S5        30.15F

$$

AMZ130-135-150-152-154-156-158-170-250-252-270-ANZ085-086-088-633-658-670-300200-
MARINE OBSERVATIONS

STATION/POSITION TIME  TEMP    WIND        PRES    WAVE   SWELL
                       AIR SEA DIR/SP/G            HT/PER HT/PER
                 (UTC) (F)     (DEG/KT/KT) (MB)    (FT/S) (FT/S)
CHESAPEAKE LIGHT 0100   40     190/ 20/ 22 1020.0
64 E VA BEACH    0100   42 49  220/ 14/ 16 1020.2    3/11   2/11
DUCK             0100   40 43  190/ 10/ 12 1019.5
2 E DUCK         0100      42                N/A     3/12   2/12
10 NE DUCK       0100      45                N/A     3/11   2/11
OREGON INLET     0100   40 42  170/  9/ 12 1021.0
13E OREGON INLT  0100      43                N/A     4/11   2/11
HATTERAS CG      0100   43 44  170/  6/  7 1021.5
DIAMOND BUOY     0100   50 71  210/ 14/ 17 1021.5    4/ 9   3/ 9
17 S OCRACOKE    NOT AVBL
CAPE LOOKOUT     0100   50     220/ 10/ 12 1021.2
BEAUFORT LAB     0100   49 46  210/  7/ 10 1020.3
27 SE WRIGHTSVLE NOT AVBL
5 SE WRIGHTSVLE  0100   52 52  190/ 14/ 16 1021.0
225 S CAPE HAT   0003   58 72  280/  8/ 10 1024.7    6/ 9   7/ 9
41 SE CHARLESTON 0100   60 68  190/ 14/ 17 1022.0    3/10   3/10

$$


USA.gov is the U.S. government's official web portal to all federal, state and local government web resources and services.